Location: Bourg-d�Oueil
(42.8588°N, 0.4991°E)
Time: 20:36:17
(UTC+00:00)

Celestis-02/Orion 38 - Pass Details

Date: 16 June 2021
Orbit: 774 x 866 km, 108.0° (Epoch: 23 July)

Event Time Altitude Azimuth Distance (km) Brightness Sun altitude
Exits shadow 21:45:22 29° 149° (SSE) 1,392 5.2 -17.0°
Maximum altitude 21:48:01 86° 63° (ENE) 788 4.5 -17.2°
Drops below altitude 10° 21:53:11 10° 334° (NNW) 2,362 8.3 -17.7°
Sets 21:55:30 0° 334° (NNW) 3,307 9.5 -17.9°
